• Em Portugal
  • Lista de países
  • Para 7 dias
  • Temperatura da água
  • Mapas de satélite
  • Mapa do tempo
  • Widgets de tempo
  • user-avatar
    Iniciar Sessão

    Previsão horária em Nadżaf

    Hoje, 19 Setembro, Terça-feira

    Tempo Temperatura Precipitação Vento Pressão Humidade
    00:00 +40°C° 0 mm 4 m/s 745 mmHg 9%
    01:00 +38°C° 0 mm 4 m/s 745 mmHg 9%
    02:00 +38°C° 0 mm 4 m/s 745 mmHg 10%
    03:00 +37°C° 0 mm 3 m/s 745 mmHg 11%
    04:00 +36°C° 0 mm 3 m/s 745 mmHg 12%
    05:00 +36°C° 0 mm 3 m/s 745 mmHg 12%
    06:00 +35°C° 0 mm 3 m/s 745 mmHg 12%
    07:00 +37°C° 0 mm 3 m/s 746 mmHg 11%
    08:00 +40°C° 0 mm 3 m/s 746 mmHg 10%
    09:00 +43°C° 0 mm 3 m/s 747 mmHg 8%
    10:00 +44°C° 0 mm 3 m/s 747 mmHg 8%
    11:00 +46°C° 0 mm 2 m/s 746 mmHg 7%
    12:00 +47°C° 0 mm 2 m/s 746 mmHg 7%
    13:00 +47°C° 0 mm 2 m/s 746 mmHg 6%
    14:00 +48°C° 0 mm 2 m/s 745 mmHg 6%
    15:00 +49°C° 0 mm 2 m/s 745 mmHg 6%
    16:00 +46°C° 0 mm 1 m/s 745 mmHg 6%
    17:00 +44°C° 0 mm 1 m/s 745 mmHg 7%
    18:00 +43°C° 0 mm 1 m/s 745 mmHg 7%
    19:00 +42°C° 0 mm 1 m/s 745 mmHg 8%
    20:00 +41°C° 0 mm 2 m/s 745 mmHg 8%
    21:00 +41°C° 0 mm 2 m/s 745 mmHg 9%
    22:00 +40°C° 0 mm 2 m/s 745 mmHg 9%
    23:00 +39°C° 0 mm 2 m/s 745 mmHg 9%

    Amanhã, 20 Setembro, Quarta-feira

    Tempo Temperatura Precipitação Vento Pressão Humidade
    00:00 +38°C° 0 mm 2 m/s 745 mmHg 10%
    01:00 +38°C° 0 mm 2 m/s 745 mmHg 10%
    02:00 +38°C° 0 mm 2 m/s 745 mmHg 10%
    03:00 +38°C° 0 mm 2 m/s 745 mmHg 10%
    04:00 +38°C° 0 mm 3 m/s 745 mmHg 10%
    05:00 +37°C° 0 mm 3 m/s 745 mmHg 10%
    06:00 +37°C° 0 mm 3 m/s 745 mmHg 11%
    07:00 +40°C° 0 mm 4 m/s 745 mmHg 10%
    08:00 +42°C° 0 mm 5 m/s 746 mmHg 9%
    09:00 +45°C° 0 mm 5 m/s 746 mmHg 7%
    10:00 +46°C° 0 mm 5 m/s 746 mmHg 7%
    11:00 +48°C° 0 mm 5 m/s 746 mmHg 6%
    12:00 +49°C° 0 mm 5 m/s 745 mmHg 6%
    13:00 +49°C° 0 mm 4 m/s 745 mmHg 6%
    14:00 +50°C° 0 mm 4 m/s 744 mmHg 5%
    15:00 +50°C° 0 mm 3 m/s 744 mmHg 5%
    16:00 +47°C° 0 mm 2 m/s 744 mmHg 6%
    17:00 +45°C° 0 mm 2 m/s 744 mmHg 6%
    18:00 +43°C° 0 mm 1 m/s 743 mmHg 7%
    19:00 +42°C° 0 mm 1 m/s 744 mmHg 7%
    20:00 +41°C° 0 mm 1 m/s 744 mmHg 8%
    21:00 +40°C° 0 mm 2 m/s 744 mmHg 8%
    22:00 +40°C° 0 mm 2 m/s 744 mmHg 8%
    23:00 +39°C° 0 mm 2 m/s 744 mmHg 8%

    Depois de amanhã, 21 Setembro, Quinta-feira

    Tempo Temperatura Precipitação Vento Pressão Humidade
    00:00 +39°C° 0 mm 2 m/s 744 mmHg 8%
    01:00 +38°C° 0 mm 2 m/s 744 mmHg 9%
    02:00 +38°C° 0 mm 2 m/s 743 mmHg 9%
    03:00 +37°C° 0 mm 2 m/s 743 mmHg 10%
    04:00 +37°C° 0 mm 3 m/s 744 mmHg 10%
    05:00 +36°C° 0 mm 3 m/s 744 mmHg 10%
    06:00 +36°C° 0 mm 3 m/s 744 mmHg 10%
    07:00 +38°C° 0 mm 3 m/s 744 mmHg 9%
    08:00 +40°C° 0 mm 3 m/s 745 mmHg 9%
    09:00 +43°C° 0 mm 4 m/s 745 mmHg 8%
    10:00 +44°C° 0 mm 3 m/s 745 mmHg 7%
    11:00 +46°C° 0 mm 2 m/s 744 mmHg 7%
    12:00 +48°C° 0 mm 2 m/s 744 mmHg 6%
    13:00 +48°C° 0 mm 2 m/s 744 mmHg 5%
    14:00 +50°C° 0 mm 3 m/s 743 mmHg 5%
    15:00 +50°C° 0 mm 3 m/s 743 mmHg 5%
    16:00 +48°C° 0 mm 3 m/s 743 mmHg 6%
    17:00 +48°C° 0 mm 4 m/s 743 mmHg 6%
    18:00 +45°C° 0 mm 4 m/s 743 mmHg 7%
    19:00 +44°C° 0 mm 4 m/s 743 mmHg 9%
    20:00 +43°C° 0 mm 4 m/s 743 mmHg 10%
    21:00 +42°C° 0 mm 4 m/s 743 mmHg 12%
    22:00 +41°C° 0 mm 5 m/s 743 mmHg 13%
    23:00 +40°C° 0 mm 5 m/s 743 mmHg 15%

    22 Setembro, Sexta-feira

    Tempo Temperatura Precipitação Vento Pressão Humidade
    00:00 +40°C° 0 mm 5 m/s 743 mmHg 17%
    01:00 +39°C° 0 mm 5 m/s 743 mmHg 19%
    02:00 +37°C° 0 mm 5 m/s 743 mmHg 22%
    03:00 +36°C° 0 mm 5 m/s 743 mmHg 24%
    04:00 +35°C° 0 mm 5 m/s 744 mmHg 26%
    05:00 +35°C° 0 mm 4 m/s 744 mmHg 27%
    06:00 +34°C° 0 mm 4 m/s 744 mmHg 28%
    07:00 +36°C° 0 mm 5 m/s 745 mmHg 26%
    08:00 +38°C° 0 mm 6 m/s 745 mmHg 23%
    09:00 +40°C° 0 mm 6 m/s 746 mmHg 21%
    10:00 +42°C° 0 mm 6 m/s 746 mmHg 18%
    11:00 +44°C° 0 mm 6 m/s 745 mmHg 16%
    12:00 +46°C° 0 mm 6 m/s 745 mmHg 14%
    13:00 +46°C° 0 mm 6 m/s 745 mmHg 13%
    14:00 +47°C° 0 mm 6 m/s 744 mmHg 13%
    15:00 +47°C° 0 mm 6 m/s 744 mmHg 12%
    16:00 +46°C° 0 mm 5 m/s 744 mmHg 13%
    17:00 +45°C° 0 mm 5 m/s 744 mmHg 14%
    18:00 +43°C° 0 mm 5 m/s 744 mmHg 15%
    19:00 +42°C° 0 mm 5 m/s 745 mmHg 17%
    20:00 +41°C° 0 mm 5 m/s 745 mmHg 19%
    21:00 +40°C° 0 mm 5 m/s 746 mmHg 20%
    22:00 +39°C° 0 mm 5 m/s 746 mmHg 21%
    23:00 +37°C° 0 mm 5 m/s 746 mmHg 22%

    23 Setembro, Sábado

    Tempo Temperatura Precipitação Vento Pressão Humidade
    00:00 +37°C° 0 mm 5 m/s 746 mmHg 22%
    01:00 +36°C° 0 mm 4 m/s 746 mmHg 23%
    02:00 +35°C° 0 mm 4 m/s 746 mmHg 23%
    03:00 +35°C° 0 mm 4 m/s 746 mmHg 23%
    04:00 +34°C° 0 mm 4 m/s 746 mmHg 24%
    05:00 +34°C° 0 mm 4 m/s 747 mmHg 26%
    06:00 +33°C° 0 mm 4 m/s 747 mmHg 27%
    07:00 +35°C° 0 mm 4 m/s 747 mmHg 25%
    08:00 +37°C° 0 mm 5 m/s 748 mmHg 23%
    09:00 +39°C° 0 mm 5 m/s 748 mmHg 21%
    10:00 +41°C° 0 mm 5 m/s 748 mmHg 19%
    11:00 +42°C° 0 mm 5 m/s 748 mmHg 16%
    12:00 +43°C° 0 mm 5 m/s 748 mmHg 14%
    13:00 +45°C° 0 mm 5 m/s 747 mmHg 13%
    14:00 +45°C° 0 mm 5 m/s 747 mmHg 11%
    15:00 +46°C° 0 mm 6 m/s 746 mmHg 9%
    16:00 +45°C° 0 mm 5 m/s 746 mmHg 10%
    17:00 +43°C° 0 mm 5 m/s 746 mmHg 10%
    18:00 +41°C° 0 mm 4 m/s 747 mmHg 11%
    19:00 +40°C° 0 mm 4 m/s 747 mmHg 11%
    20:00 +38°C° 0 mm 4 m/s 747 mmHg 11%
    21:00 +37°C° 0 mm 4 m/s 748 mmHg 11%
    22:00 +37°C° 0 mm 4 m/s 748 mmHg 12%
    23:00 +36°C° 0 mm 4 m/s 747 mmHg 12%

    24 Setembro, Domingo

    Tempo Temperatura Precipitação Vento Pressão Humidade
    00:00 +35°C° 0 mm 4 m/s 747 mmHg 12%
    01:00 +35°C° 0 mm 4 m/s 747 mmHg 13%
    02:00 +34°C° 0 mm 4 m/s 747 mmHg 15%
    03:00 +33°C° 0 mm 4 m/s 747 mmHg 16%
    04:00 +33°C° 0 mm 3 m/s 747 mmHg 18%
    05:00 +31°C° 0 mm 3 m/s 747 mmHg 19%
    06:00 +31°C° 0 mm 3 m/s 747 mmHg 21%
    07:00 +34°C° 0 mm 3 m/s 748 mmHg 18%
    08:00 +35°C° 0 mm 3 m/s 748 mmHg 16%
    09:00 +37°C° 0 mm 4 m/s 748 mmHg 14%
    10:00 +40°C° 0 mm 4 m/s 748 mmHg 12%
    11:00 +42°C° 0 mm 5 m/s 748 mmHg 10%
    12:00 +45°C° 0 mm 5 m/s 748 mmHg 9%
    13:00 +45°C° 0 mm 5 m/s 747 mmHg 8%
    14:00 +46°C° 0 mm 6 m/s 747 mmHg 8%
    15:00 +46°C° 0 mm 6 m/s 746 mmHg 8%
    16:00 +45°C° 0 mm 5 m/s 746 mmHg 9%
    17:00 +43°C° 0 mm 5 m/s 746 mmHg 9%
    18:00 +42°C° 0 mm 4 m/s 747 mmHg 10%
    19:00 +41°C° 0 mm 4 m/s 747 mmHg 11%
    20:00 +40°C° 0 mm 4 m/s 747 mmHg 11%
    21:00 +38°C° 0 mm 4 m/s 747 mmHg 12%
    22:00 +37°C° 0 mm 4 m/s 747 mmHg 12%
    23:00 +36°C° 0 mm 4 m/s 747 mmHg 12%
    Mostrar mais